Regional Weather Roundup
Issued by NWS

Home | Current Version | Previous Version | Text Only | Print | Product List | Glossary On
Versions: 1 2 3 4 5 6 7 8 9 10 11 12 13 14 15 16 17 18 19 20 21 22 23 24 25 26 27
000
ASUS45 KTFX 231210
RWRMT
MONTANA REGIONAL WEATHER ROUNDUP
NATIONAL WEATHER SERVICE GREAT FALLS MT
500 AM MST THU FEB 23 2017

NOTE: "FAIR" INDICATES FEW OR NO CLOUDS BELOW 12000 FEET WITH NO
SIGNIFICANT WEATHER AND/OR OBSTRUCTIONS TO VISIBILITY.

MTZ001>007-043-231300-
WEST OF THE DIVIDE

CITY           SKY/WX    TMP DP  RH WIND       PRES   REMARKS
KALISPELL      MOCLDY    25  20  81 N8        29.95R WCI  16
MISSOULA       CLOUDY    29  28  96 N3        29.92S
BUTTE          CLOUDY    25  17  72 N9        29.78R WCI  15
MULLAN PASS    FOG       20  16  84 N7        29.82S VSB 1   WCI  11
ANACONDA         N/A     25  16  68 NW12      29.82R WCI  14
DEER LODGE       N/A     27  18  69 N6        29.87R WCI  20
EUREKA           N/A     23  19  86 CALM      30.01S
HAMILTON         N/A     28  27  93 W6        29.87S WCI  22
LIBBY            N/A     18  16  93 CALM      30.00R
PLAINS           N/A     28  22  78 MISG      29.97S
RONAN            N/A     23  19  85 SW1       29.96S
$$

MTZ008-052>055-231300-
SOUTHWEST MONTANA

CITY           SKY/WX    TMP DP  RH WIND       PRES   REMARKS
BOZEMAN        LGT SNOW  28  25  88 E6        29.81S FOG     WCI  22
DILLON         CLOUDY    26  19  74 NE18      29.73F WCI  13
W YELLOWSTONE  CLOUDY    14  10  85 CALM      29.68S
ENNIS          CLOUDY    23  21  93 N15       29.79R WCI  10
THREE FORKS      N/A     30 -26   8 N1        29.84R
TWIN BRIDGES     N/A     26  18  72 N16       29.77S WCI  14
$$

MTZ009-010-012-014-046-048-049-054-231300-
EAST SLOPES AND CENTRAL MONTANA

CITY           SKY/WX    TMP DP  RH WIND       PRES   REMARKS
CUT BANK       CLOUDY    21  18  88 NE8       29.97S WCI  11
GREAT FALLS    FLURRIES  27  25  92 N12       29.93S WCI  17
MALMSTROM AFB  FLURRIES  27  27 100 N10       29.95R WCI  18
HELENA         CLOUDY    30  23  75 N7        29.88S WCI  23
AUGUSTA        SNOWSHWR  24  24 100 NE13      29.91R VSB 1/4 WCI  12
BOWMANS CRNR   LGT SNOW  23  23  99 NE10      29.89R VSB 1   WCI  13
CHOTEAU          N/A     25  25 100 NE12      29.96S WCI  14
CONRAD           N/A     25  24  96 N7        29.99S WCI  17
POWER          FRZ RAIN  25  25  99 N13       29.94R VSB 3/4 WCI  14
RAYNESFORD     FLURRIES  26  25  96 W3        29.91R
ULM            FLURRIES  28  27  96 MISG      29.93R
$$

MTZ011-013-016-021-045-047-050-051-231300-
NORTH CENTRAL MONTANA

CITY           SKY/WX    TMP DP  RH WIND       PRES   REMARKS
HAVRE          CLOUDY    25  22  88 NE12      30.02R WCI  14
LEWISTOWN      LGT SNOW  24  23  96 N7        29.89R FOG     WCI  16
N BAR RANCH    MIX PCPN  25  25 100 SE9       29.91R VSB 1/4 WCI  15
CHINOOK          N/A     27  23  86 CALM      30.03R
DENTON         MOCLDY    24  24  96 E10       29.90R WCI  14
FORT BENTON      N/A     28  27  93 CALM      30.00R
GEYSER         FLURRIES  25  24  97 NE7       29.91R WCI  17
GRASS RANGE    FLURRIES  26  25  99 NE10      29.89R WCI  15
JUDITH GAP     LGT SNOW  24  22  95 N15       29.86R FOG     WCI  11
ROY            SNOWSHWR  24  24  99 MISG      29.93R FOG
STANFORD       FOG       24  24  99 N9        29.89R VSB 1/2 WCI  14
WINIFRED       MOCLDY    24  24 100 NE10      29.92R WCI  14
$$

MTZ017>020-022>027-061-062-231300-
NORTHEAST MONTANA

CITY           SKY/WX    TMP DP  RH WIND       PRES   REMARKS
GLASGOW        CLOUDY    25  23  92 CALM      30.01R
JORDAN           N/A     19  16  88 W3        29.98R
SIDNEY         CLOUDY    27  25  92 N5        30.03S
WOLF POINT     CLOUDY    28  25  88 CALM      30.04R
PLENTYWOOD       N/A     27  25  93 NE14      30.02R WCI  15
POPLAR           N/A     27  25  93 CALM      30.04R
SCOBEY           N/A     30  23  75 N12       29.98R WCI  20
$$

MTZ028>42-056>058-231300-
SOUTHCENTRAL AND SOUTHEAST MONTANA

CITY           SKY/WX    TMP DP  RH WIND       PRES   REMARKS
BAKER          CLOUDY    26  23  88 E8        29.95S WCI  18
BILLINGS       CLOUDY    28  26  92 NE13      29.88S WCI  17
LIVINGSTON     LGT SNOW  27  24  89 E16       29.81R FOG     WCI  15
MILES CITY     CLOUDY    28  25  88 NE10      29.96R WCI  19
BIG TIMBER     CLOUDY    27  27 100 E8        29.88R FOG     WCI  18
FORSYTH          N/A     28  27  93 E3        29.95R
HARLOWTON      FLURRIES  26  23  90 N18       29.86S WCI  12
LAUREL           N/A     28  24  85 CALM      29.87S
$$

REGIONAL REPORTS...DAKOTAS

CITY           SKY/WX    TMP DP  RH WIND       PRES   REMARKS
WILLISTON      CLOUDY    29  26  89 SW5       30.02S
MINOT          LGT SNOW  32  28  85 N14       30.00R FOG     WCI  22
DICKINSON      CLOUDY    24  22  91 NW5       29.96S FOG
BEACH            N/A    N/A N/A N/A MISG        N/A
CROSBY         CLOUDY    27  27 100 NE15      30.07R WCI  15
TIOGA          LGT SNOW  28  28 100 W7        30.02R WCI  21
WATFORD CITY   MIX PCPN  25  25 100 CALM      30.02S
BISMARCK       CLOUDY    28  25  88 NW5       30.01R
GRAND FORKS    CLOUDY    29  20  69 N5        30.05R
FARGO          CLOUDY    29  26  89 N10       30.02R WCI  20
BUFFALO SD       N/A     28  26  92 NE13      29.84F WCI  17
RAPID CITY     CLOUDY    28  26  92 NE14      29.86S FOG     WCI  17
$$

REGIONAL REPORTS...WYOMING/IDAHO/WASHINGTON

CITY           SKY/WX    TMP DP  RH WIND       PRES   REMARKS
GILLETTE       CLOUDY    28  25  88 N9        29.79R WCI  19
SHERIDAN       LGT SNOW  29  27  92 NE7       29.83F FOG     WCI  22
BUFFALO WY     CLOUDY    27  23  85 N9        29.79S WCI  18
CODY           CLOUDY    25  22  88 NW17G26   29.75F WCI  12
YELLOWSTONE LA   N/A     15  10  80 MISG      29.64F
IDAHO FALLS    CLOUDY    28  27  96 SE7       29.62S WCI  21
SALMON         CLOUDY    30  25  80 CALM      29.74F
BOISE          CLOUDY    32  24  72 NW22G29   29.81S WCI  19
SPOKANE        FOG       22  20  92 CALM      30.01  VSB 1/16
$$

REGIONAL REPORTS...ALBERTA

CITY           SKY/WX    TMP DP  RH WIND       PRES   REMARKS
EDMONTON       CLOUDY    21  16  79 NW2       30.07S
CALGARY        LGT SNOW  19  18  93 CALM      30.02R FOG
LETHBRIDGE     FLURRIES  23 N/A N/A NE3       30.05R
MEDICINE HAT   FOG       12  10  92 E3        30.09R VSB 1/4
WATERTON GATE    N/A     19  18  93 NE1         N/A
CARDSTON         N/A     21  19  93 NW2         N/A
MILK RIVER       N/A     21  19  93 NE9         N/A  WCI  11
$$

REGIONAL REPORTS...SASKATCHEWAN

CITY           SKY/WX    TMP DP  RH WIND       PRES   REMARKS
SWIFT CURRENT  MOCLDY    16  16 100 NE6       30.04R WCI   7
REGINA         CLOUDY    23  12  63 NE2       30.07R
SASKATOON      PTCLDY    19  16  86 NW7       30.09R WCI  10
CYPRESS HILLS    N/A     14  10  85 NE8         N/A  WCI   3
ROCKGLEN         N/A     23  21  93 NE7         N/A  WCI  15
$$




USA.gov is the U.S. government's official web portal to all federal, state and local government web resources and services.